Regional Weather Roundup
Issued by NWS

Home | Current Version | Previous Version | Text Only | Print | Product List | Glossary Off
Versions: 1 2 3 4 5 6 7 8 9 10 11 12 13 14 15 16 17 18 19 20 21 22 23 24 25 26 27 28 29 30 31 32 33 34 35 36 37 38 39 40 41 42 43 44 45 46 47 48 49 50

000
ASUS43 KLMK 260010
RWRKY
KENTUCKY REGIONAL WEATHER ROUNDUP
NATIONAL WEATHER SERVICE LOUISVILLE KY
800 PM EDT FRI JUL 25 2014

NOTE "FAIR" INDICATES FEW OR NO CLOUDS BELOW 12,000 FEET
WITH NO SIGNIFICANT WEATHER AND/OR OBSTRUCTIONS TO VISIBILITY.

KYZ001>023-026-027-061>063-070>075-260100-
WESTERN AND SOUTH CENTRAL KENTUCKY

CITY           SKY/WX    TMP DP  RH WIND       PRES   REMARKS
PADUCAH        CLOUDY    77  63  61 SW6       29.91F
HENDERSON      CLOUDY    73  59  60 S7        29.91R
OWENSBORO      CLOUDY    76  59  55 S7        29.92F
HOPKINSVILLE   CLOUDY    80  60  50 S5        29.92F
BOWLING GREEN  CLOUDY    81  55  40 SE5       29.93F
GLASGOW        MOCLDY    79  57  46 SE10      29.93F
$$

KYZ024-025-028>034-038-045-046-053-260100-
NORTH CENTRAL KENTUCKY

CITY           SKY/WX    TMP DP  RH WIND       PRES   REMARKS
LOUISVILLE/SDF MOCLDY    79  56  45 E7        29.96R
LOUISVILLE/LOU CLOUDY    79  55  43 SE7       29.97R
FORT KNOX      CLOUDY    77  59  54 NE6       29.94F
$$

KYZ035>037-039>044-047>052-055>060-089>105-260100-
NORTHEAST KENTUCKY

CITY           SKY/WX    TMP DP  RH WIND       PRES   REMARKS
LEXINGTON      MOCLDY    76  59  55 S5        30.00F
COVINGTON      CLOUDY    74  59  59 S3        29.99F
FRANKFORT      CLOUDY    77  57  50 CALM      29.98F
$$

KYZ054-064>069-076>088-106>120-260100-
SOUTHEAST KENTUCKY

CITY           SKY/WX    TMP DP  RH WIND       PRES   REMARKS
JACKSON        CLEAR     73  59  61 CALM      30.04F
LONDON         PTCLDY    76  58  53 S3        30.04F
SOMERSET       MOCLDY    73  59  60 SE3       30.02F
MIDDLESBORO    PTCLDY    75  65  69 N3        30.03F
MONTICELLO     MOCLDY    74  64  70 CALM      30.03F
$$




USA.gov is the U.S. government's official web portal to all federal, state and local government web resources and services.